{"data":{"norad_id":45772,"intl_designator":"2020-038AU","name":"STARLINK-1470","alt_names":[],"object_type":"PAYLOAD","status":"ACTIVE","operator":null,"country":"US","launch_date":"2020-06-13","launch_site_code":"AFETR","launch_vehicle":null,"mission":null,"orbit_class":"UNKNOWN","rcs_meters":null,"size_class":null,"mass_kg":null,"dimensions":null,"purposes":["comms"],"wikipedia_slug":null,"has_3d_model":false,"image_url":null,"decayed_at":null,"tle_current":{"epoch":"2026-09-19T19:16:10.867584Z","epoch_age_seconds":78464,"freshness":"FRESH","line1":"1 45772U 20038AU  26262.80290356  .00037757  00000+0  84586-3 0  9991","line2":"2 45772  53.0406 342.5716 0003209 352.9945   7.1014 15.43092938346903","mean_motion":15.43092938,"eccentricity":0.0003209,"inclination_deg":53.0406,"raan_deg":342.5716,"arg_perigee_deg":352.9945,"mean_anomaly_deg":7.1014,"bstar":0.00084586,"rev_number":34690,"period_min":93.319071362376,"perigee_km":434.80039320608,"apogee_km":439.17434002458,"semimajor_km":6815.1243666153,"source":"CELESTRAK","updated_at":"2026-09-20T09:00:38.458093Z"}}}